STARLINK-1603 (46162 NORAD) Tracking and Keplerian Element Data

This shows tracking and keplerian element data for the satellite.

Feedback or suggestion? Click here.




ElementValue
Catalog46162
NameSTARLINK-1603
Epoch Orbit185
Epoch Day336.91667824
Epoch Year2020
RAAN292.7597
Inclination53.002
Eccentricity0.000176
Argument of Perigee69.0911
Mean Anonmoly297.8173
Mean Motion15.05589834
Decay Rate-0.00023224
L11 46162U 20057AX 20336.91667824 -.00023224 00000-0 -15795-2 0 9994
L22 46162 53.0020 292.7597 0001760 69.0911 297.8173 15.05589834 1851

Live tracking and technical data element details for STARLINK-1603 (NORAD 46162). STARLINK-1603 can be tracked NOW for your location showing map with azimuth and elevation plus other details from your city location.

Track the satellite on the map from your city or location and see movement details for azimuth, elevation, latitude, longitude, range, height, and movement on the map or in text.







IsCatalogInMostPopularTable: catalog: 46162, numindb: 16
Update: records affected: 1



GetName: 46162 STARLINK-1603

Hit Count: updated at: Thu, 03 Dec 2020 06:58:12 GMT